GFSSW_925_thetae_057.txt.gz
Theta_e
308 308 308 309 309 309 309 310 310 311 312 314 315 316 316 316 316 318 318 315 315 311 312 315 316 316 318 319 318 317 318 318 317 318 320 319 318 317 317 318 317 315 315 312 311
308 308 308 309 309 309 309 310 310 311 313 316 317 318 317 317 317 318 316 313 313 312 314 315 315 315 317 319 319 319 318 317 316 317 318 319 318 318 317 317 317 315 313 311 312
310 309 308 308 309 309 310 310 311 311 313 315 317 318 318 316 320 317 314 314 312 312 314 314 316 316 317 318 319 318 317 315 314 316 318 318 318 317 317 317 317 317 315 311 311
310 310 309 309 309 310 310 311 311 314 315 316 318 318 318 317 319 314 313 313 312 312 315 316 316 318 318 318 318 318 317 316 317 316 317 317 317 317 317 316 312 312 311 311 311
311 311 310 310 311 311 311 312 314 315 317 318 318 318 317 319 320 315 311 312 312 313 315 316 316 318 319 317 317 318 318 317 317 317 317 316 317 317 316 312 310 309 309 309 309
312 312 311 312 313 313 313 313 314 316 318 319 319 318 317 320 316 315 313 311 313 314 314 315 316 316 316 316 317 317 317 317 316 316 316 315 317 315 313 311 310 309 309 308 307
312 313 313 313 314 314 314 314 315 316 318 319 319 316 318 320 317 316 315 313 312 313 314 315 315 315 316 317 315 316 317 319 318 317 316 315 316 315 312 311 310 309 309 307 305
314 314 314 314 314 315 315 314 315 317 319 319 318 316 320 316 317 316 314 313 312 312 313 313 314 315 316 315 315 317 318 321 319 315 314 315 321 316 311 311 312 311 310 307 306
318 317 317 316 315 316 316 315 316 318 319 318 319 318 321 312 315 316 315 315 312 312 312 312 315 316 315 317 320 319 321 322 321 315 315 315 321 314 311 311 313 311 309 307 306
319 318 318 318 317 317 316 315 317 318 318 317 317 319 318 316 313 315 312 313 314 313 314 314 315 316 317 319 322 323 322 321 321 317 315 317 317 314 311 312 313 311 309 307 306
321 320 319 318 317 317 316 320 321 322 318 321 321 320 316 309 310 313 312 312 314 315 317 316 317 319 319 318 319 320 320 321 320 316 315 318 318 318 313 311 312 311 309 307 306
322 322 321 319 318 317 317 320 321 317 322 320 320 319 313 311 312 312 312 315 315 317 317 315 317 318 319 318 319 319 319 319 319 315 314 317 318 318 316 312 312 311 309 307 304
322 321 322 319 318 317 318 319 318 315 321 320 321 320 318 311 316 314 312 314 315 317 317 319 319 316 317 316 317 317 318 319 319 316 314 316 318 319 318 312 309 309 308 306 305
321 321 322 320 317 318 319 318 318 319 321 321 321 321 316 315 317 315 312 313 313 316 316 317 317 314 315 316 315 318 318 317 317 317 320 317 323 322 320 311 308 307 306 305 304
319 321 321 319 319 319 318 317 319 319 328 322 320 312 314 318 316 311 310 310 316 314 314 318 313 314 316 316 315 317 315 315 316 317 319 321 319 321 317 314 310 308 306 305 303
318 317 320 319 318 318 317 317 319 321 327 322 316 318 317 317 312 309 310 310 311 315 314 315 313 314 315 314 314 314 315 315 315 318 325 322 322 323 319 315 313 308 305 305 303
311 316 318 318 318 318 317 318 322 325 321 322 319 318 320 319 314 312 312 312 316 317 318 317 316 315 313 315 312 315 317 326 326 323 325 318 323 322 320 313 314 308 306 305 302
310 314 317 315 318 317 318 322 320 324 323 316 317 319 321 319 317 313 313 315 314 317 320 322 323 318 314 318 320 315 319 327 332 330 327 312 320 320 313 311 309 308 306 304 302
314 313 316 316 318 317 320 323 323 323 323 322 316 320 322 318 319 316 317 318 317 316 320 323 325 315 314 315 318 318 319 320 321 314 320 319 316 315 308 307 306 308 305 304 302
315 315 315 316 315 316 322 321 320 319 320 321 322 320 322 321 319 318 320 319 319 317 317 322 325 314 311 309 311 315 315 318 318 328 329 323 321 320 312 309 307 307 306 304 301
315 317 314 316 316 317 320 320 320 319 319 320 323 322 321 322 320 319 322 319 318 318 315 319 320 316 309 312 316 313 315 317 318 322 330 329 322 316 317 312 309 307 305 304 302
314 317 315 316 319 316 316 318 316 320 320 320 320 321 322 320 320 320 321 321 316 316 316 319 321 325 321 313 312 315 316 317 320 321 319 321 323 308 313 314 310 308 305 304 303
314 314 314 315 319 316 316 316 317 319 320 320 321 320 320 322 320 318 320 318 316 315 318 317 319 325 323 315 310 311 313 315 316 318 323 325 323 308 308 310 310 308 306 305 303
313 316 315 314 317 316 317 318 320 319 319 319 320 320 321 321 319 321 319 314 312 314 315 316 319 323 327 324 317 314 313 313 315 320 321 321 321 310 309 309 309 309 307 305 304
309 314 314 315 314 316 316 318 318 317 318 319 320 320 321 323 322 322 319 319 310 310 312 317 318 320 321 321 320 317 316 314 314 315 320 320 319 318 311 311 309 308 306 305 304
308 312 311 315 314 316 316 317 318 317 318 319 321 321 320 322 321 322 320 318 317 310 310 313 318 318 320 320 320 321 317 316 314 314 315 317 318 318 315 310 308 307 306 304 303
302 300 305 310 314 315 316 314 314 315 315 315 314 317 320 320 317 314 311 310 311 313 310 311 313 316 321 319 319 315 315 315 316 315 315 316 316 308 308 307 307 307 305 304 303

GFSSW_925_thetae_060.txt.gz
Theta_e
309 309 309 309 309 309 310 310 310 311 313 314 315 315 316 316 316 319 319 316 314 311 312 315 316 316 317 319 318 317 318 318 318 318 319 317 317 317 316 317 314 314 312 312 312
309 309 308 308 309 309 309 310 310 311 312 314 315 316 317 317 317 320 317 314 313 312 315 315 316 315 317 319 319 318 320 318 314 315 317 318 318 316 316 316 315 313 311 312 312
309 309 309 308 308 309 309 310 310 311 312 314 315 317 317 317 321 317 314 313 312 312 314 314 316 316 317 318 319 319 318 314 314 317 316 318 317 317 316 316 314 315 311 311 312
310 309 309 309 309 309 310 310 311 312 313 314 316 317 317 318 320 315 313 312 312 312 315 315 316 318 319 319 318 317 317 315 317 316 317 318 317 317 315 313 312 310 310 311 310
312 311 310 309 309 310 310 311 311 313 314 315 317 318 318 320 320 314 311 312 311 313 316 316 316 318 319 317 317 317 318 317 317 316 316 316 316 316 315 310 309 309 310 309 308
313 313 312 311 312 311 311 312 312 313 315 317 317 318 319 320 317 316 314 311 314 314 314 315 316 315 316 316 317 317 317 317 316 317 316 315 315 315 314 310 309 309 308 307 307
313 313 313 313 313 313 313 313 313 314 315 317 318 317 319 319 319 317 315 313 313 313 315 315 315 315 317 317 316 316 316 317 316 315 316 315 315 314 311 310 309 308 307 307 306
313 313 313 314 314 314 315 314 314 314 316 318 318 318 319 317 318 317 315 314 313 313 314 314 314 315 316 315 316 316 317 319 317 316 314 314 318 316 310 309 309 308 306 306 305
317 317 316 316 316 315 315 315 315 315 317 318 319 320 321 314 315 317 316 315 313 313 312 313 315 316 315 315 317 318 319 320 318 315 313 313 318 312 310 309 310 309 308 306 305
319 319 318 318 317 317 317 316 316 316 319 318 318 318 317 316 314 317 315 314 314 314 314 314 314 315 315 316 319 320 319 320 320 315 314 314 313 312 310 309 309 309 308 306 305
321 321 320 318 318 317 317 320 322 321 319 321 320 320 318 310 312 314 313 313 314 315 316 315 315 316 316 316 317 317 318 319 318 314 315 315 315 315 311 309 309 309 307 305 305
323 323 322 320 319 318 316 320 320 316 321 320 320 320 316 311 312 314 313 314 315 317 316 315 316 316 317 318 318 317 317 318 318 314 314 314 315 314 313 310 310 310 308 306 302
324 322 322 321 319 318 318 319 319 317 321 320 321 321 319 312 315 314 312 314 315 317 317 318 318 317 317 317 318 317 318 318 318 317 313 313 314 314 314 313 310 309 308 306 302
323 323 321 321 318 318 319 318 319 320 321 321 322 322 319 314 316 314 312 314 314 316 317 317 317 317 316 317 316 318 317 316 316 317 317 314 319 319 317 315 311 309 307 304 302
321 322 321 321 318 319 319 319 318 320 326 322 321 315 316 318 316 312 310 311 315 313 316 318 314 316 316 317 316 316 315 315 316 315 315 316 318 318 316 318 311 308 305 303 302
315 318 319 319 318 319 319 317 319 322 326 322 316 317 317 317 312 310 310 309 311 314 314 315 313 314 315 314 314 314 315 315 315 316 319 318 320 320 320 317 313 308 306 303 301
308 310 317 317 319 318 318 318 321 321 321 321 319 318 319 319 315 312 312 311 315 316 317 316 314 314 313 313 312 315 316 321 322 320 322 318 319 321 318 314 313 309 306 303 301
308 308 310 316 318 318 317 321 319 321 322 317 319 319 321 320 317 314 313 314 313 315 318 319 321 315 313 315 317 314 316 321 323 325 323 313 317 318 309 307 308 308 306 303 301
309 312 312 311 316 317 319 321 321 320 321 319 318 321 322 320 319 315 314 315 315 313 318 320 322 315 313 314 315 316 316 316 320 308 315 319 316 314 309 307 307 306 304 303 300
309 313 314 314 315 316 321 322 318 319 320 321 322 320 322 322 318 317 317 317 317 313 314 319 324 314 308 311 312 315 315 318 318 325 326 322 319 318 311 309 306 306 304 303 300
309 314 313 315 315 315 318 316 320 318 318 321 324 323 320 322 319 318 320 319 317 315 314 317 320 312 310 311 315 312 314 316 318 318 327 322 322 315 316 310 307 306 304 303 300
310 312 314 315 316 315 315 316 315 319 317 319 320 322 323 321 322 321 319 319 316 317 316 316 321 319 314 311 311 314 316 316 321 322 318 321 323 310 309 310 307 306 304 303 300
310 312 313 314 317 317 314 314 315 317 318 321 321 321 320 321 324 322 320 318 315 316 317 318 320 325 324 314 310 312 313 315 317 316 320 319 321 307 307 309 306 305 304 302 301
308 312 312 313 314 315 315 316 315 314 315 318 320 320 320 321 320 323 320 317 313 315 316 317 317 320 325 322 313 312 312 313 315 319 319 320 319 311 308 308 307 305 303 302 301
306 308 313 313 315 315 315 316 316 318 317 316 317 319 321 322 322 322 321 319 312 310 314 318 318 318 319 319 319 314 313 313 314 316 318 318 318 317 311 307 307 306 303 302 301
306 307 310 311 313 314 313 314 316 317 316 317 319 319 319 321 321 321 320 318 320 312 312 314 317 316 319 316 317 320 318 315 312 314 315 316 316 315 313 307 305 306 305 303 302
303 301 305 308 311 313 313 313 314 313 313 315 316 316 315 316 314 311 310 311 316 317 313 312 313 315 320 315 317 319 319 319 319 313 313 315 314 308 309 307 305 305 304 304 303

GFSSW_925_thetae_063.txt.gz
Theta_e
308 308 308 308 309 309 309 310 310 311 312 313 314 315 316 316 316 319 318 315 313 311 311 314 315 315 316 316 316 313 311 312 314 315 317 315 316 315 314 313 311 310 310 310 312
309 308 308 308 308 309 309 309 310 311 312 313 314 315 316 316 318 320 316 314 313 311 315 314 313 314 312 317 315 312 311 314 312 313 315 315 315 314 314 313 312 310 310 312 313
310 309 309 308 308 308 309 310 310 311 311 312 314 315 316 316 320 316 313 313 312 312 314 314 315 314 315 316 316 315 312 313 312 316 314 316 315 315 315 314 312 311 309 310 310
310 310 309 309 309 309 308 309 310 310 311 311 313 314 316 318 318 315 312 312 311 312 315 315 314 315 316 316 316 314 314 314 316 314 315 316 315 315 313 312 309 308 308 308 307
312 311 310 310 309 309 309 309 309 310 310 311 313 316 317 317 318 313 312 312 311 314 315 314 314 315 317 315 315 315 315 316 315 315 314 314 315 314 313 308 306 308 308 306 306
314 313 311 311 311 311 310 309 310 310 311 312 315 316 319 317 317 316 314 311 314 314 314 314 314 313 315 315 314 315 314 314 314 315 315 315 314 314 311 306 306 307 306 304 305
316 313 312 312 312 313 313 311 311 311 312 314 317 317 317 315 318 317 313 312 313 313 313 314 314 313 314 315 313 314 314 313 313 313 314 313 313 313 309 306 307 306 304 304 304
313 312 312 313 313 313 314 314 313 313 314 316 317 318 315 316 318 318 314 314 312 312 314 314 314 314 315 314 314 314 314 316 316 312 313 313 315 314 307 307 307 305 303 304 303
316 316 315 315 315 315 315 315 315 314 315 317 319 319 318 314 317 318 315 313 313 313 313 313 314 313 313 312 313 314 315 315 317 313 311 312 314 311 307 307 307 304 303 303 302
319 318 318 318 317 317 317 316 316 316 318 317 318 315 314 314 315 317 315 313 313 312 312 313 311 311 312 311 315 315 316 316 317 314 312 311 311 311 307 307 307 305 304 303 302
322 320 320 319 318 318 317 319 320 319 319 314 315 315 312 312 315 315 314 313 312 313 313 312 312 313 313 311 313 315 315 316 314 314 313 312 312 311 308 306 305 305 305 304 302
323 322 321 321 319 318 317 318 319 316 318 318 318 317 312 312 311 313 313 312 313 314 313 314 314 314 313 313 314 314 314 315 314 313 312 312 312 311 310 309 308 307 307 304 300
323 323 322 322 320 318 317 318 318 319 318 318 319 319 315 311 313 313 311 312 313 313 314 315 315 315 314 315 316 315 315 315 316 314 311 312 313 312 311 310 308 308 307 305 301
322 323 323 321 319 319 318 320 318 319 318 318 320 320 312 313 314 313 312 312 313 315 314 314 314 315 314 315 315 316 314 315 316 316 316 312 318 313 312 311 309 309 306 304 300
317 321 321 321 318 318 320 319 318 319 328 319 318 314 313 318 314 311 310 311 313 313 314 316 314 315 316 315 314 316 314 314 314 314 314 314 314 314 313 314 315 309 305 302 301
314 314 318 319 318 319 319 318 316 322 325 321 315 316 316 316 311 309 310 309 311 313 313 313 312 313 314 312 313 312 313 313 313 313 316 314 315 317 316 316 315 310 304 301 300
307 308 313 317 319 319 318 318 317 321 320 319 318 316 317 317 312 310 311 311 314 315 316 314 313 313 312 313 312 314 314 317 319 317 319 314 315 318 316 314 313 310 305 300 300
305 308 308 313 317 318 317 320 319 318 318 317 318 317 319 317 314 312 311 312 310 313 315 316 319 314 311 312 313 312 314 317 318 321 319 312 317 317 312 309 306 306 305 301 299
304 308 310 309 313 318 319 321 319 318 317 317 318 320 319 318 316 313 311 311 312 311 316 317 317 311 311 312 313 313 315 314 318 303 312 317 315 313 310 308 307 305 303 301 299
304 310 312 311 309 317 321 320 317 317 318 318 320 318 320 319 318 315 313 312 314 312 312 316 320 311 309 311 311 313 312 316 316 320 319 319 318 321 314 311 307 304 304 302 299
304 309 309 312 312 313 313 312 318 316 317 320 323 321 319 319 317 316 317 315 313 312 312 314 318 313 310 312 314 312 315 315 316 316 319 317 322 313 315 312 308 305 303 302 299
305 308 311 314 314 314 313 313 314 316 317 318 320 321 321 319 319 316 316 316 313 312 313 313 318 312 313 310 309 313 315 316 321 319 316 316 323 309 309 308 307 305 303 302 299
306 305 311 313 314 313 312 313 313 315 317 319 320 320 318 321 324 321 319 316 314 314 315 315 317 316 320 314 310 312 313 315 317 316 320 324 323 306 306 309 306 304 302 301 299
305 306 306 311 312 312 312 314 314 313 315 316 319 319 320 321 321 323 322 317 314 316 314 316 317 316 323 320 314 312 311 313 316 322 320 322 322 314 309 308 307 303 301 300 299
301 304 306 310 311 313 313 315 315 315 313 313 316 318 319 323 321 321 320 319 313 311 316 318 321 319 318 317 316 311 312 313 315 317 321 321 319 318 315 311 306 304 300 300 300
299 301 302 305 310 310 312 314 315 315 315 316 315 315 316 318 320 319 320 319 320 311 316 315 319 317 320 316 316 318 317 314 313 314 315 317 317 313 312 311 306 304 302 301 301
301 301 303 303 305 309 312 311 312 313 314 313 316 317 316 316 314 314 310 310 311 316 316 314 314 316 320 314 316 318 317 317 317 315 315 316 315 313 312 310 306 304 303 302 301

GFSSW_925_thetae_069.txt.gz
Theta_e
311 310 308 308 308 308 309 309 309 310 310 311 312 313 313 314 315 317 317 316 314 311 311 313 314 313 314 312 311 306 307 309 310 311 314 312 314 312 309 310 310 309 308 310 321
310 309 308 308 308 308 308 309 309 309 310 310 311 312 313 314 318 318 317 315 314 311 313 313 312 312 309 314 310 308 307 310 309 310 314 312 313 312 312 311 311 310 309 310 320
312 310 309 308 308 308 308 308 309 309 309 310 310 312 313 315 318 315 312 312 312 312 313 313 313 312 314 313 313 308 307 310 310 312 313 313 313 310 310 311 309 309 308 308 311
312 312 310 309 308 308 308 308 308 309 309 310 310 312 314 317 313 314 311 311 311 311 313 313 312 314 313 315 314 313 312 311 312 312 313 313 313 313 308 310 309 307 307 307 307
313 311 310 309 309 308 308 308 308 308 309 310 311 313 316 313 313 314 312 310 312 314 313 312 313 314 314 314 313 313 313 313 313 311 312 313 313 311 311 309 306 305 306 306 306
314 313 311 310 309 309 308 308 308 309 309 310 312 314 316 312 316 315 313 311 312 313 312 312 312 312 313 312 312 312 313 313 312 313 312 312 311 311 311 305 306 305 305 304 305
311 312 313 312 310 309 309 308 309 309 309 311 314 316 314 310 316 315 313 312 312 312 311 313 313 313 312 313 312 312 313 311 311 311 313 311 312 311 309 305 306 305 304 304 303
314 311 314 313 312 311 310 311 311 310 310 312 315 317 311 314 316 316 313 312 312 313 313 313 313 312 313 312 310 313 311 314 312 311 312 312 314 313 306 305 306 304 302 302 302
316 314 313 312 311 312 313 314 314 314 312 313 316 317 312 314 316 317 314 313 312 312 312 313 312 310 311 311 312 310 313 312 313 310 311 311 313 312 306 305 306 304 303 302 301
319 317 316 314 315 315 316 316 316 316 316 315 317 312 311 313 315 317 314 312 311 310 310 310 307 310 307 311 312 313 313 311 313 312 311 311 310 309 308 305 306 304 302 301 302
321 320 319 317 317 317 317 317 317 317 318 311 312 308 312 312 315 314 313 312 310 310 312 310 311 312 312 310 311 311 312 313 312 312 312 311 310 311 309 305 305 304 303 304 303
321 321 320 319 318 318 317 315 315 315 317 316 316 314 314 312 313 313 312 312 312 313 310 311 311 312 311 311 311 313 313 312 311 311 311 311 311 309 308 307 306 307 307 306 304
320 321 321 321 319 318 318 317 318 317 316 316 315 316 315 310 312 314 310 310 312 311 311 313 314 311 312 312 312 311 311 312 313 312 309 309 310 310 309 308 307 306 308 307 306
315 319 320 320 318 318 318 321 317 318 321 320 317 317 311 310 313 312 311 310 311 313 312 312 311 313 312 313 312 314 310 312 313 314 315 311 317 313 311 310 308 309 309 307 304
313 314 318 319 318 318 320 321 318 317 332 319 317 314 310 315 313 312 310 310 312 312 312 313 313 313 314 313 312 313 311 312 313 313 312 312 313 314 311 311 311 311 310 307 303
306 308 313 317 319 319 320 319 317 324 329 320 315 315 315 314 309 308 310 309 309 312 312 311 310 311 313 312 311 310 312 311 310 310 315 312 314 315 312 312 312 311 310 306 302
304 305 307 312 318 319 319 317 323 320 320 319 318 315 316 313 310 310 311 311 314 315 315 313 312 310 310 312 311 312 314 317 316 314 318 311 312 316 313 311 310 310 310 307 300
305 304 303 306 312 317 318 319 320 320 321 315 315 315 318 315 313 310 310 312 309 312 313 316 317 312 309 312 314 311 312 316 316 316 316 312 317 316 309 309 307 306 306 303 299
305 304 305 304 307 311 319 320 320 318 317 319 318 320 319 316 315 311 309 310 311 308 316 315 316 310 309 310 312 311 314 312 315 300 309 314 312 311 309 309 308 308 304 302 299
305 303 304 304 308 310 317 318 318 316 316 317 323 319 321 318 316 313 310 311 312 309 311 314 317 310 310 310 310 311 310 315 312 314 315 315 314 317 315 313 310 309 308 303 299
304 303 303 306 309 310 311 310 315 315 315 319 319 319 317 318 317 315 316 313 310 311 311 312 314 312 310 311 312 311 312 312 313 311 313 314 318 310 313 312 312 310 307 303 299
303 304 307 309 310 307 309 308 311 314 316 318 319 319 317 317 317 315 316 314 309 309 311 311 314 310 312 309 308 311 312 312 316 314 313 313 319 310 310 310 308 307 305 302 298
301 303 302 309 310 309 309 309 310 313 314 318 319 319 318 319 320 315 314 312 309 310 312 313 315 317 318 316 311 311 311 313 314 312 317 315 319 305 307 308 307 307 305 300 297
300 300 301 304 308 309 308 310 311 310 312 314 316 317 318 319 319 323 317 317 310 310 312 314 313 316 323 319 314 313 311 311 315 318 318 318 319 316 310 308 308 306 303 299 297
300 300 301 304 302 305 310 309 310 311 311 312 314 316 316 319 319 319 318 319 314 314 314 316 317 313 314 313 313 313 313 312 314 315 319 319 317 317 315 310 312 311 303 300 298
300 297 300 300 301 304 302 308 311 310 311 312 313 312 315 317 317 318 319 318 320 313 316 316 320 316 320 315 313 317 313 312 313 315 315 316 317 316 312 311 310 308 307 304 300
297 298 298 299 300 301 303 304 303 308 310 309 311 311 311 314 313 314 313 314 314 315 316 316 319 319 322 316 315 318 317 316 313 312 314 316 315 314 313 310 310 310 307 304 302

GFSSW_925_thetae_075.txt.gz
Theta_e
314 313 310 308 308 308 308 308 308 309 309 309 309 310 311 311 312 316 315 315 313 312 310 312 312 312 312 309 307 303 309 310 311 310 312 308 311 307 307 309 309 309 309 310 319
312 312 312 309 308 308 308 308 308 308 309 309 309 310 311 312 314 317 315 315 314 313 311 311 310 310 308 311 308 306 306 307 307 307 311 311 310 309 310 310 311 309 307 309 320
312 312 312 310 308 308 307 307 308 308 308 308 309 310 311 313 314 314 313 312 312 311 312 312 311 311 312 311 310 305 307 306 308 308 310 311 310 307 310 311 310 312 309 308 320
312 311 312 312 310 308 308 307 307 307 308 308 309 310 311 315 308 312 311 311 311 311 312 312 310 312 311 312 311 311 309 307 310 310 311 311 309 309 307 311 309 307 307 308 318
312 312 311 311 311 310 308 308 307 307 308 308 309 310 313 310 311 313 311 310 311 312 312 310 312 311 312 312 311 312 311 310 310 310 310 310 311 311 308 307 306 306 305 308 315
313 313 312 311 310 311 310 309 308 308 308 308 309 311 313 309 313 314 312 311 312 312 311 311 310 310 310 310 310 310 311 311 310 311 311 312 310 310 309 306 306 306 306 306 309
314 312 312 313 312 310 310 310 308 308 308 308 310 312 311 307 312 314 312 311 311 311 310 311 311 311 310 311 309 310 313 310 310 310 311 309 312 311 309 307 308 306 306 304 305
315 312 311 311 313 312 310 310 310 308 308 309 311 313 307 310 313 314 312 311 312 312 312 311 312 309 310 308 309 311 309 313 310 309 310 311 313 310 307 306 308 306 305 304 304
319 317 315 313 313 312 311 311 312 312 311 311 313 312 306 311 314 315 312 311 311 311 311 312 310 308 309 310 310 308 310 311 310 308 310 310 312 310 307 306 307 306 305 304 304
320 319 317 315 312 312 313 315 315 315 315 313 315 307 308 310 314 315 313 311 310 309 310 308 306 308 306 309 309 309 312 310 311 310 310 311 311 309 307 307 307 307 306 304 304
321 321 319 317 315 315 315 316 313 312 316 306 306 304 310 311 314 313 311 310 309 308 311 308 310 312 311 309 307 306 309 310 308 309 311 310 310 311 309 306 306 307 306 306 307
317 319 320 319 317 316 317 313 312 313 316 314 312 311 312 312 313 312 310 312 311 311 308 309 310 310 309 308 310 310 311 310 308 308 310 310 310 309 310 310 310 310 311 309 307
315 318 320 320 318 317 317 316 317 316 317 316 314 314 312 311 312 312 309 309 310 309 309 310 310 308 310 309 310 310 310 310 312 310 308 309 310 309 308 308 308 308 309 310 309
314 315 317 319 317 317 317 319 317 317 321 321 316 316 310 309 312 311 310 310 310 311 308 310 309 310 310 311 310 311 308 310 311 312 312 309 314 311 310 310 309 310 309 307 305
307 311 315 316 317 318 319 320 319 317 323 316 316 314 308 312 310 311 308 310 310 311 310 311 310 311 311 311 309 311 308 309 310 311 311 311 313 311 309 311 311 312 310 306 305
305 305 308 315 316 318 319 320 317 325 326 319 314 315 313 312 309 308 310 308 308 310 311 309 308 310 311 310 310 308 309 309 307 309 315 311 313 311 311 311 311 310 309 307 306
306 305 305 307 315 316 318 317 324 325 321 318 317 313 315 313 311 311 311 310 312 314 313 311 311 310 309 311 309 310 312 313 312 313 316 309 311 313 311 309 309 311 309 306 305
304 305 305 305 306 312 313 321 320 318 322 314 314 313 317 312 312 310 311 313 310 311 311 314 314 310 308 311 312 310 311 313 311 313 313 310 315 315 309 308 306 305 305 305 304
300 303 303 304 305 307 313 317 318 317 316 319 317 319 316 315 312 311 311 311 311 308 314 313 314 309 308 309 311 310 313 310 313 297 310 312 311 310 309 308 308 308 307 307 305
299 302 302 304 306 307 310 316 315 316 317 317 323 321 321 317 315 310 309 310 312 308 310 313 316 309 309 309 309 310 309 314 310 313 312 314 313 315 314 312 310 309 309 307 305
300 298 300 306 307 308 309 310 313 313 316 319 321 323 321 319 317 311 314 312 309 310 310 311 313 311 309 309 311 310 311 311 311 311 314 312 318 308 311 310 311 309 308 307 305
300 296 303 307 307 304 308 309 310 313 315 317 318 320 321 319 319 318 318 315 310 309 311 311 314 319 311 308 307 309 311 310 315 312 310 312 319 308 309 309 308 307 306 305 303
298 298 300 307 304 304 306 308 309 312 316 316 315 316 319 319 320 318 315 312 309 311 312 313 317 320 319 314 310 311 310 312 311 310 313 316 320 306 306 308 307 308 305 303 302
299 299 297 302 303 303 305 307 308 307 310 313 316 316 317 318 318 319 318 315 310 311 313 315 314 319 321 319 312 312 310 310 314 317 316 316 318 313 311 309 308 305 303 302 300
299 298 297 299 298 302 304 306 306 307 308 308 310 313 315 316 315 316 315 315 314 313 314 315 315 314 316 312 312 312 312 311 313 315 317 318 315 315 313 310 308 305 304 303 302
299 300 297 297 299 298 300 302 303 305 308 309 309 309 311 313 312 309 312 313 314 313 315 313 314 312 316 316 313 315 312 311 311 313 313 315 316 315 311 309 310 309 307 306 305
297 296 299 297 298 299 299 300 300 299 300 304 308 308 309 310 309 307 307 309 310 312 314 313 311 314 317 313 316 318 316 316 312 311 312 314 314 314 311 310 309 308 307 307 306